• Join FlightAware (Why Join?)
  • Login
  • US Flag GB Flag 
05:47 EDT


 

Airport Tracker/Info


-or-


 

Live Flight TrackerFlight Track Log ✈ N498QS ✈ 02-May-2013 ✈ KHND - KSBA

Flight Track Log - Related Links

Times and Time Zones

All times are in EDT time to prevent confusion due to time zone crossing. See the N498QS flight status page for this flight to view local times or setup timezone preferences in your user account.

Time Position Orientation Groundspeed Altitude Reporting Facility
EDT Latitude Longitude Course Direction KTS MPH feet Rate Location/Type
17:29 35.9886 -115.1333 20° North 157 181 3,300  Level Los Angeles Center
17:29 35.9978 -115.1292 20° North 202 232 3,800 3,480 Climbing Los Angeles Center
17:30 36.0083 -115.0947 69° East 213 245 5,800 3,540 Climbing Los Angeles Center
17:30 35.9919 -115.0675 127° Southeast 260 299 7,500 3,060 Climbing Los Angeles Center
17:31 35.9175 -115.1031 201° Southwest 263 303 10,800 2,460 Climbing Los Angeles Center
17:32 35.8375 -115.1650 212° Southwest 318 366 12,700 2,220 Climbing Los Angeles Center
17:33 35.7475 -115.2336 212° Southwest 362 417 15,500 2,400 Climbing Los Angeles Center
17:34 35.6600 -115.3094 215° Southwest 379 436 17,700 2,220 Climbing Los Angeles Center
17:35 35.5864 -115.4144 229° Southwest 399 459 20,200 2,340 Climbing Los Angeles Center
17:36 35.5108 -115.5167 228° Southwest 403 464 22,600 2,160 Climbing Los Angeles Center
17:37 35.4256 -115.6319 228° Southwest 413 475 24,800 1,980 Climbing Los Angeles Center
17:38 35.3442 -115.7408 228° Southwest 429 494 26,800 1,500 Climbing Los Angeles Center
17:39 35.2614 -115.8514 227° Southwest 439 505 28,000 540 Climbing Los Angeles Center
17:41 35.1758 -115.9633 227° Southwest 447 514 28,000  Level Los Angeles Center
17:42 35.0764 -116.0967 228° Southwest 444 511 28,000  Level Los Angeles Center
17:43 34.9925 -116.2072 227° Southwest 443 510 28,000  Level Los Angeles Center
17:44 34.9083 -116.3178 227° Southwest 446 513 28,000  Level Los Angeles Center
17:45 34.8258 -116.4408 231° Southwest 470 541 28,000  Level Los Angeles Center
17:46 34.7750 -116.5861 247° West 469 540 28,000  Level Los Angeles Center
17:47 34.7494 -116.7383 258° West 462 532 28,000  Level Los Angeles Center
17:48 34.7233 -116.8928 258° West 467 537 28,000  Level Los Angeles Center
17:49 34.6894 -117.0756 257° West 463 533 28,000  Level Los Angeles Center
17:50 34.6617 -117.2311 258° West 468 539 28,000  Level Los Angeles Center
17:51 34.6336 -117.3867 258° West 470 541 28,000  Level Los Angeles Center
17:52 34.6044 -117.5428 257° West 470 541 28,000  Level Los Angeles Center
17:53 34.5783 -117.6956 258° West 464 534 28,000  Level Los Angeles Center
17:54 34.5500 -117.8503 258° West 468 539 28,000  Level Los Angeles Center
17:55 34.5200 -118.0050 257° West 469 540 28,000  Level Los Angeles Center
17:56 34.4894 -118.1822 258° West 470 541 28,000 -180 Level Los Angeles Center
17:57 34.4608 -118.3361 257° West 470 541 27,700 -480 Descending Los Angeles Center
17:58 34.4303 -118.4894 256° West 471 542 27,000 -540 Descending Los Angeles Center
17:59 34.3953 -118.6717 257° West 467 537 26,600 -1,200 Descending Los Angeles Center
18:00 34.3667 -118.8197 257° West 456 525 24,600 -1,500 Descending Los Angeles Center
18:01 34.3500 -118.9556 262° West 414 476 23,500 -1,500 Descending Los Angeles Center
18:02 34.3408 -119.0831 265° West 387 445 21,600 -2,340 Descending Los Angeles Center
18:03 34.2992 -119.2200 250° West 357 411 18,500 -2,640 Descending Los Angeles Center
18:04 34.2414 -119.3089 232° Southwest 357 411 16,200 -2,340 Descending Los Angeles Center
18:05 34.2111 -119.4142 251° West 337 388 14,000 -2,100 Descending Los Angeles Center
18:06 34.1992 -119.5161 262° West 318 366 11,900 -2,100 Descending Los Angeles Center
18:07 34.2503 -119.6014 306° West 312 359 9,700 -2,040 Descending Los Angeles Center
18:08 34.2917 -119.7044 296° West 291 335 7,700 -2,040 Descending Los Angeles Center
18:09 34.3297 -119.7675 306° West 265 305 5,600 -1,740 Descending Los Angeles Center
18:10 34.3817 -119.7300 31° Northeast 200 230 4,300 -1,740 Descending Los Angeles Center
18:11 34.4192 -119.7619 325° Northwest 178 205 2,100 -1,800 Descending Los Angeles Center
18:13 34.4303 -119.8122 285° West 175 201 500 -840 Descending Los Angeles Center
18:14 34.4367 -119.8606 279° West 170 196 300 -240 Descending Los Angeles Center